星链-3697 (STARLINK-3697 )

导读

STARLINK-3697是美国SpaceX公司星链(Starlink)星座中的一颗卫星,于2022年3月9日发射升空。星链项目旨在构建低轨卫星互联网星座,为全球偏远、欠发达地区提供高速宽带网络服务,同时已拓展至航空、航运及应急通信等领域。作为星链组网过程中发射的卫星,STARLINK-3697助力星座持续扩容,推动星链实现全球覆盖与服务能力升级。

Basic Information
目录编号:
51962
目录名称:
STARLINK-3697
国际标识:
2022-025G
轨道中心:
EARTH
卫星名称:
星链-3697
卫星全名:
星链-3697 (STARLINK-3697 )
卫星状态:
在轨 (已飞行1640 天)
发射日期:
2022-03-09 UTC
国别 :
美国 (US)
星等 :
--
Orbit Information
数据来源 国际轨道数据
星历时间: 2026-09-04T10:35:18+0800
9小时前
查看轨道信息
半长轴: 6848.818km
偏心率: 0.0001012
轨道倾角: 53.159°
近地点辐角 78.306°
升交点赤经 274.000°
平近点角 281.805°
近地点: 469.987km
远地点: 471.375km
周期: 94.012分钟
每日圈数: 15.317199
Detailed Information
固有亮度:
5
最大亮度:
2.5
卫星平台:
Starlink v1.5
覆盖范围:
全球
运营商:
太空探索技术公司
运营商所在国:
美国
制造商(研发单位):
太空探索技术公司
制造商所在国:
美国
使用方式:
暂无
Satellite Introduction
星链(Starlink)计划是由太空探索技术公司(SpaceX)提出的一个巨型低轨卫星互联网星座项目,计划在2019年至2024年间在太空搭建由约1.2万颗卫星组成的“星链”网络,其中1584颗将部署在地球上空550千米处的近地轨道,并从2020年开始工作。该卫星仍在工作。
2D Orbit Map
3D Orbit Map
Orbit Altitude Analysis Chart
Orbit Inclination Analysis Chart
Orbit Comprehensive Analysis Chart
View Comprehensive Chart
Conjunction Data List
Event ID Objects TCA Miss Dist (km) Collision Risk Probability Collision Risk Index (CRI) Action
CDM_260904-091405-196206-863023
STPSAT-7 (68630)
2026-09-04T
09:14:46+0000
1.034 km
极远距离
1.021185E-5 中风险 0.55
CDM_260906-150805-196206-238321
2026-09-06T
15:08:26+0000
1.178 km
极远距离
7.788678E-6 低风险 0.53
CDM_260905-032205-196206-403721
2026-09-05T
03:22:51+0000
2.501 km
极远距离
1.488641E-6 低风险 0.38
CDM_260905-055605-196205-315321
2026-09-05T
05:56:34+0000
2.627 km
极远距离
1.436003E-6 低风险 0.38
CDM_260905-104705-196206-486021
2026-09-05T
10:47:14+0000
2.857 km
极远距离
1.418212E-6 低风险 0.38
CDM_260904-194605-196206-861421
2026-09-04T
19:46:30+0000
2.978 km
极远距离
1.348573E-6 低风险 0.38
CDM_260906-075605-196206-765821
2026-09-06T
07:56:08+0000
2.810 km
极远距离
8.805646E-7 极低风险 0.34